QPF
0.01 0.01 0.01 0.01 0.01 0.01 0.01 0.01 0.02 0.02 0.01 0.01 0.01 0.01 0.02 0.02 0.03 0.02 0.01 0.02 0.02 0.01 0.01 0.02 0.01 0.01 0.01 0.01 0.02 0.02 0.02 0.03 0.04 0.05 0.06 0.07 0.09 0.07
0.00 0.01 0.01 0.01 0.01 0.01 0.01 0.01 0.01 0.02 0.02 0.01 0.00 0.01 0.02 0.02 0.02 0.02 0.02 0.02 0.02 0.02 0.02 0.02 0.01 0.01 0.01 0.01 0.01 0.01 0.02 0.02 0.02 0.03 0.03 0.04 0.05 0.05
0.00 0.00 0.01 0.01 0.01 0.01 0.01 0.01 0.02 0.02 0.02 0.01 0.00 0.00 0.01 0.01 0.02 0.03 0.03 0.03 0.02 0.02 0.02 0.02 0.01 0.01 0.02 0.02 0.01 0.01 0.02 0.02 0.02 0.02 0.02 0.03 0.04 0.05
0.00 0.00 0.00 0.00 0.01 0.01 0.01 0.02 0.02 0.02 0.02 0.01 0.01 0.01 0.01 0.01 0.02 0.03 0.03 0.03 0.02 0.02 0.02 0.01 0.01 0.01 0.02 0.02 0.01 0.01 0.01 0.02 0.02 0.02 0.02 0.03 0.03 0.04
0.00 0.00 0.00 0.00 0.01 0.01 0.02 0.02 0.02 0.03 0.03 0.03 0.02 0.01 0.01 0.01 0.01 0.02 0.02 0.02 0.02 0.02 0.02 0.01 0.01 0.01 0.01 0.02 0.01 0.01 0.01 0.01 0.02 0.02 0.02 0.02 0.02 0.02
0.00 0.00 0.00 0.00 0.01 0.01 0.01 0.02 0.02 0.02 0.03 0.03 0.03 0.02 0.02 0.02 0.01 0.02 0.02 0.02 0.02 0.01 0.01 0.01 0.01 0.00 0.01 0.01 0.01 0.01 0.01 0.01 0.01 0.02 0.02 0.02 0.02 0.02
0.00 0.00 0.00 0.01 0.01 0.01 0.01 0.01 0.02 0.02 0.03 0.03 0.03 0.02 0.02 0.02 0.01 0.01 0.01 0.01 0.02 0.01 0.01 0.01 0.00 0.00 0.00 0.00 0.01 0.01 0.01 0.01 0.01 0.01 0.02 0.02 0.02 0.02
0.01 0.01 0.01 0.01 0.01 0.01 0.01 0.02 0.02 0.02 0.03 0.03 0.02 0.01 0.01 0.01 0.01 0.01 0.01 0.01 0.02 0.01 0.01 0.01 0.00 0.00 0.00 0.00 0.01 0.01 0.01 0.01 0.01 0.01 0.01 0.01 0.02 0.02
0.01 0.01 0.01 0.01 0.01 0.01 0.02 0.03 0.03 0.03 0.03 0.03 0.02 0.01 0.01 0.01 0.01 0.02 0.02 0.01 0.02 0.01 0.01 0.01 0.01 0.00 0.00 0.01 0.01 0.01 0.01 0.01 0.01 0.01 0.01 0.01 0.01 0.02
0.01 0.01 0.01 0.01 0.01 0.02 0.02 0.02 0.02 0.02 0.02 0.02 0.02 0.01 0.01 0.01 0.01 0.02 0.02 0.03 0.03 0.02 0.02 0.01 0.01 0.00 0.00 0.01 0.01 0.01 0.01 0.01 0.01 0.01 0.01 0.01 0.01 0.01
0.02 0.02 0.02 0.02 0.02 0.02 0.02 0.02 0.02 0.02 0.03 0.02 0.02 0.02 0.02 0.02 0.02 0.03 0.03 0.04 0.04 0.02 0.01 0.01 0.01 0.01 0.01 0.01 0.01 0.01 0.01 0.01 0.01 0.01 0.01 0.01 0.01 0.01
0.02 0.02 0.02 0.02 0.02 0.02 0.02 0.02 0.02 0.02 0.03 0.04 0.03 0.03 0.02 0.02 0.02 0.02 0.02 0.03 0.03 0.02 0.01 0.01 0.01 0.01 0.01 0.01 0.01 0.01 0.01 0.00 0.00 0.01 0.01 0.01 0.02 0.02
0.01 0.01 0.01 0.02 0.02 0.03 0.03 0.03 0.02 0.02 0.02 0.03 0.02 0.03 0.02 0.02 0.02 0.01 0.01 0.01 0.02 0.02 0.01 0.02 0.02 0.02 0.02 0.01 0.00 0.00 0.00 0.00 0.00 0.01 0.01 0.01 0.01 0.01
0.02 0.01 0.01 0.02 0.02 0.02 0.02 0.02 0.02 0.03 0.03 0.03 0.03 0.02 0.02 0.02 0.02 0.02 0.02 0.02 0.02 0.02 0.02 0.02 0.03 0.02 0.02 0.02 0.01 0.00 0.00 0.00 0.00 0.01 0.01 0.01 0.01 0.01
0.01 0.02 0.02 0.02 0.02 0.02 0.02 0.02 0.02 0.03 0.03 0.03 0.03 0.02 0.01 0.01 0.01 0.02 0.02 0.02 0.02 0.01 0.02 0.02 0.02 0.02 0.03 0.02 0.01 0.01 0.01 0.01 0.01 0.01 0.01 0.01 0.01 0.01
0.02 0.02 0.02 0.02 0.01 0.02 0.02 0.02 0.02 0.03 0.03 0.03 0.02 0.02 0.02 0.02 0.02 0.02 0.02 0.02 0.02 0.01 0.01 0.01 0.01 0.02 0.02 0.02 0.02 0.01 0.01 0.01 0.01 0.01 0.01 0.01 0.01 0.01
0.02 0.03 0.03 0.03 0.02 0.02 0.02 0.02 0.02 0.03 0.04 0.03 0.02 0.02 0.02 0.02 0.02 0.01 0.01 0.01 0.02 0.01 0.01 0.01 0.01 0.01 0.01 0.01 0.02 0.01 0.01 0.01 0.01 0.01 0.01 0.01 0.01 0.01
0.03 0.03 0.03 0.03 0.02 0.02 0.02 0.02 0.02 0.03 0.03 0.03 0.02 0.02 0.02 0.02 0.02 0.02 0.01 0.01 0.01 0.01 0.01 0.01 0.01 0.02 0.01 0.01 0.01 0.02 0.02 0.02 0.01 0.01 0.01 0.01 0.01 0.01
0.03 0.02 0.02 0.02 0.02 0.01 0.02 0.02 0.02 0.02 0.03 0.03 0.02 0.02 0.02 0.02 0.02 0.02 0.02 0.02 0.02 0.01 0.02 0.01 0.02 0.02 0.02 0.01 0.01 0.01 0.02 0.02 0.01 0.01 0.01 0.01 0.01 0.02
0.02 0.02 0.02 0.02 0.02 0.02 0.02 0.02 0.02 0.03 0.03 0.03 0.03 0.02 0.02 0.02 0.02 0.02 0.02 0.02 0.02 0.02 0.02 0.02 0.02 0.02 0.03 0.02 0.02 0.02 0.01 0.02 0.02 0.02 0.01 0.01 0.01 0.01
0.02 0.02 0.02 0.02 0.02 0.02 0.02 0.02 0.03 0.03 0.03 0.03 0.03 0.03 0.02 0.02 0.02 0.02 0.02 0.02 0.02 0.02 0.02 0.02 0.02 0.02 0.02 0.02 0.02 0.02 0.01 0.02 0.02 0.02 0.02 0.02 0.02 0.02
0.02 0.02 0.02 0.02 0.02 0.02 0.02 0.02 0.03 0.03 0.03 0.03 0.03 0.03 0.03 0.02 0.02 0.02 0.01 0.02 0.02 0.02 0.02 0.01 0.01 0.01 0.02 0.03 0.02 0.02 0.01 0.01 0.01 0.02 0.02 0.02 0.03 0.03
0.02 0.02 0.02 0.02 0.02 0.02 0.02 0.02 0.02 0.03 0.03 0.03 0.03 0.03 0.03 0.02 0.02 0.02 0.02 0.02 0.02 0.02 0.02 0.02 0.02 0.01 0.02 0.02 0.02 0.02 0.02 0.01 0.02 0.02 0.02 0.02 0.02 0.01
MSLP
1014.07 1014.32 1014.52 1014.70 1014.87 1015.08 1015.38 1015.79 1016.35 1017.04 1017.86 1018.75 1019.65 1020.49 1021.22 1021.80 1022.20 1022.42 1022.50 1022.45 1022.32 1022.14 1021.93 1021.70 1021.44 1021.14 1020.79 1020.38 1019.91 1019.40 1018.85 1018.30 1017.76 1017.26 1016.81 1016.40 1016.02 1015.66
1013.45 1013.74 1013.98 1014.20 1014.43 1014.72 1015.09 1015.58 1016.22 1017.00 1017.89 1018.85 1019.81 1020.70 1021.47 1022.07 1022.49 1022.71 1022.77 1022.70 1022.52 1022.29 1022.02 1021.72 1021.40 1021.05 1020.67 1020.23 1019.74 1019.22 1018.68 1018.13 1017.59 1017.08 1016.60 1016.16 1015.75 1015.35
1012.99 1013.35 1013.66 1013.97 1014.28 1014.64 1015.09 1015.65 1016.35 1017.17 1018.09 1019.05 1020.01 1020.90 1021.66 1022.24 1022.63 1022.83 1022.86 1022.75 1022.53 1022.25 1021.93 1021.59 1021.23 1020.84 1020.44 1020.00 1019.52 1019.02 1018.50 1017.97 1017.45 1016.95 1016.46 1016.00 1015.54 1015.09
1012.77 1013.22 1013.64 1014.04 1014.45 1014.90 1015.41 1016.03 1016.75 1017.57 1018.47 1019.40 1020.30 1021.12 1021.81 1022.34 1022.67 1022.82 1022.80 1022.65 1022.39 1022.07 1021.71 1021.33 1020.94 1020.55 1020.13 1019.70 1019.25 1018.78 1018.29 1017.80 1017.31 1016.83 1016.34 1015.86 1015.37 1014.86
1012.82 1013.39 1013.93 1014.45 1014.95 1015.48 1016.05 1016.69 1017.41 1018.19 1019.02 1019.87 1020.67 1021.39 1021.97 1022.40 1022.65 1022.73 1022.66 1022.46 1022.16 1021.81 1021.42 1021.02 1020.61 1020.20 1019.79 1019.36 1018.93 1018.49 1018.04 1017.59 1017.13 1016.66 1016.18 1015.68 1015.16 1014.60
1013.14 1013.84 1014.50 1015.12 1015.72 1016.31 1016.92 1017.56 1018.24 1018.96 1019.70 1020.42 1021.09 1021.68 1022.14 1022.46 1022.62 1022.63 1022.50 1022.26 1021.93 1021.55 1021.14 1020.72 1020.29 1019.87 1019.44 1019.02 1018.59 1018.16 1017.73 1017.30 1016.86 1016.40 1015.92 1015.40 1014.85 1014.26
1013.70 1014.50 1015.25 1015.96 1016.63 1017.26 1017.89 1018.51 1019.14 1019.77 1020.40 1020.99 1021.53 1021.98 1022.33 1022.54 1022.61 1022.56 1022.39 1022.12 1021.77 1021.38 1020.95 1020.51 1020.06 1019.60 1019.15 1018.70 1018.25 1017.81 1017.36 1016.92 1016.47 1016.01 1015.52 1014.99 1014.42 1013.80
1014.40 1015.27 1016.08 1016.84 1017.55 1018.20 1018.81 1019.40 1019.97 1020.52 1021.04 1021.52 1021.93 1022.27 1022.51 1022.64 1022.65 1022.56 1022.36 1022.09 1021.74 1021.34 1020.90 1020.44 1019.96 1019.46 1018.96 1018.45 1017.95 1017.45 1016.96 1016.47 1015.99 1015.49 1014.97 1014.43 1013.84 1013.22
1015.16 1016.05 1016.89 1017.66 1018.36 1019.01 1019.60 1020.14 1020.65 1021.12 1021.55 1021.93 1022.26 1022.51 1022.68 1022.76 1022.74 1022.64 1022.45 1022.19 1021.85 1021.46 1021.03 1020.54 1020.03 1019.48 1018.91 1018.32 1017.73 1017.14 1016.56 1016.00 1015.44 1014.89 1014.33 1013.77 1013.17 1012.55
1015.89 1016.77 1017.58 1018.33 1019.01 1019.62 1020.18 1020.68 1021.13 1021.54 1021.91 1022.23 1022.50 1022.70 1022.83 1022.89 1022.88 1022.79 1022.63 1022.39 1022.09 1021.73 1021.30 1020.81 1020.26 1019.65 1019.00 1018.32 1017.62 1016.91 1016.22 1015.55 1014.90 1014.27 1013.66 1013.06 1012.45 1011.84
1016.56 1017.38 1018.14 1018.84 1019.48 1020.05 1020.57 1021.03 1021.45 1021.82 1022.15 1022.43 1022.67 1022.85 1022.97 1023.03 1023.04 1022.98 1022.85 1022.67 1022.41 1022.08 1021.67 1021.17 1020.60 1019.94 1019.21 1018.43 1017.62 1016.79 1015.97 1015.18 1014.42 1013.71 1013.03 1012.39 1011.77 1011.17
1017.15 1017.90 1018.60 1019.24 1019.83 1020.36 1020.84 1021.27 1021.66 1022.01 1022.32 1022.59 1022.81 1022.98 1023.10 1023.17 1023.19 1023.16 1023.08 1022.94 1022.72 1022.43 1022.04 1021.55 1020.96 1020.27 1019.48 1018.62 1017.71 1016.77 1015.83 1014.92 1014.06 1013.25 1012.50 1011.82 1011.18 1010.58
1017.67 1018.35 1018.98 1019.57 1020.11 1020.61 1021.06 1021.48 1021.86 1022.20 1022.49 1022.75 1022.96 1023.12 1023.23 1023.30 1023.33 1023.32 1023.26 1023.14 1022.96 1022.69 1022.33 1021.86 1021.27 1020.56 1019.74 1018.82 1017.83 1016.80 1015.77 1014.76 1013.80 1012.92 1012.10 1011.37 1010.71 1010.10
1018.16 1018.78 1019.36 1019.90 1020.41 1020.88 1021.32 1021.73 1022.10 1022.43 1022.72 1022.96 1023.15 1023.29 1023.38 1023.42 1023.43 1023.40 1023.34 1023.23 1023.06 1022.81 1022.47 1022.01 1021.43 1020.72 1019.89 1018.94 1017.91 1016.83 1015.74 1014.66 1013.64 1012.69 1011.83 1011.05 1010.36 1009.73
1018.65 1019.21 1019.75 1020.26 1020.75 1021.21 1021.65 1022.05 1022.42 1022.75 1023.03 1023.24 1023.40 1023.49 1023.54 1023.53 1023.49 1023.42 1023.32 1023.18 1023.00 1022.75 1022.41 1021.97 1021.41 1020.71 1019.89 1018.94 1017.90 1016.81 1015.69 1014.58 1013.52 1012.53 1011.63 1010.82 1010.09 1009.44
1019.14 1019.68 1020.18 1020.67 1021.15 1021.60 1022.04 1022.45 1022.82 1023.14 1023.39 1023.58 1023.69 1023.73 1023.70 1023.63 1023.52 1023.37 1023.21 1023.02 1022.80 1022.53 1022.18 1021.74 1021.19 1020.51 1019.71 1018.79 1017.77 1016.68 1015.57 1014.46 1013.39 1012.38 1011.46 1010.63 1009.87 1009.18
1019.65 1020.16 1020.64 1021.11 1021.58 1022.03 1022.47 1022.88 1023.24 1023.55 1023.79 1023.94 1024.00 1023.97 1023.88 1023.72 1023.52 1023.30 1023.06 1022.80 1022.52 1022.20 1021.83 1021.38 1020.82 1020.16 1019.37 1018.48 1017.49 1016.44 1015.35 1014.26 1013.21 1012.21 1011.28 1010.44 1009.66 1008.93
1020.16 1020.64 1021.10 1021.55 1022.00 1022.45 1022.88 1023.29 1023.65 1023.94 1024.16 1024.27 1024.29 1024.21 1024.05 1023.82 1023.54 1023.23 1022.91 1022.57 1022.23 1021.85 1021.43 1020.95 1020.38 1019.71 1018.94 1018.07 1017.11 1016.09 1015.04 1013.99 1012.96 1011.98 1011.07 1010.22 1009.42 1008.67
1020.67 1021.10 1021.53 1021.96 1022.39 1022.82 1023.24 1023.63 1023.98 1024.26 1024.46 1024.55 1024.54 1024.42 1024.21 1023.92 1023.58 1023.21 1022.82 1022.41 1021.99 1021.55 1021.08 1020.55 1019.94 1019.26 1018.48 1017.61 1016.68 1015.69 1014.67 1013.65 1012.66 1011.71 1010.81 1009.97 1009.17 1008.40
1021.16 1021.55 1021.93 1022.32 1022.71 1023.12 1023.52 1023.89 1024.23 1024.49 1024.68 1024.76 1024.73 1024.59 1024.36 1024.04 1023.66 1023.24 1022.80 1022.33 1021.85 1021.35 1020.81 1020.22 1019.57 1018.85 1018.05 1017.18 1016.25 1015.28 1014.28 1013.30 1012.34 1011.42 1010.54 1009.71 1008.91 1008.13
1021.63 1021.96 1022.30 1022.64 1022.99 1023.36 1023.73 1024.08 1024.39 1024.64 1024.81 1024.89 1024.85 1024.71 1024.47 1024.15 1023.76 1023.32 1022.84 1022.33 1021.80 1021.24 1020.64 1019.99 1019.28 1018.52 1017.68 1016.79 1015.85 1014.89 1013.92 1012.96 1012.03 1011.13 1010.28 1009.46 1008.67 1007.89
1022.08 1022.36 1022.65 1022.94 1023.24 1023.57 1023.89 1024.21 1024.49 1024.72 1024.88 1024.94 1024.91 1024.78 1024.55 1024.23 1023.85 1023.40 1022.90 1022.37 1021.80 1021.19 1020.53 1019.83 1019.07 1018.25 1017.38 1016.46 1015.51 1014.55 1013.59 1012.66 1011.75 1010.89 1010.06 1009.26 1008.49 1007.72
1022.52 1022.76 1022.99 1023.24 1023.49 1023.77 1024.04 1024.31 1024.56 1024.76 1024.89 1024.95 1024.91 1024.78 1024.56 1024.26 1023.88 1023.44 1022.94 1022.39 1021.79 1021.14 1020.44 1019.69 1018.88 1018.02 1017.12 1016.18 1015.23 1014.27 1013.33 1012.42 1011.54 1010.71 1009.91 1009.14 1008.39 1007.64
Thickness
5485 5485 5485 5485 5485 5485 5485 5485 5487 5492 5497 5496 5493 5491 5490 5489 5489 5489 5489 5490 5489 5489 5489 5489 5489 5490 5490 5490 5491 5492 5493 5494 5495 5497 5499 5501 5503 5506
5474 5474 5474 5475 5474 5474 5473 5474 5474 5476 5481 5483 5481 5480 5478 5478 5477 5478 5478 5478 5478 5478 5478 5477 5478 5478 5478 5478 5479 5479 5481 5482 5484 5486 5488 5489 5491 5494
5463 5463 5463 5463 5463 5463 5463 5463 5463 5463 5466 5468 5468 5468 5467 5467 5467 5467 5467 5467 5467 5466 5466 5465 5466 5466 5467 5467 5467 5468 5469 5471 5473 5475 5476 5478 5480 5483
5453 5452 5452 5452 5452 5452 5452 5452 5453 5453 5454 5456 5456 5456 5456 5456 5457 5456 5456 5455 5455 5455 5454 5453 5454 5455 5455 5456 5456 5457 5458 5460 5462 5464 5466 5468 5470 5472
5443 5442 5442 5441 5442 5442 5442 5442 5442 5443 5444 5445 5446 5445 5445 5445 5445 5445 5445 5444 5444 5443 5443 5443 5443 5444 5444 5445 5445 5447 5448 5450 5452 5454 5455 5456 5459 5461
5433 5432 5431 5431 5431 5431 5431 5431 5432 5433 5434 5434 5435 5435 5434 5434 5434 5434 5434 5433 5433 5432 5432 5432 5433 5433 5434 5435 5436 5437 5438 5440 5442 5444 5445 5446 5448 5450
5424 5422 5422 5421 5420 5420 5420 5421 5421 5422 5424 5424 5425 5425 5425 5424 5424 5423 5423 5423 5422 5422 5422 5423 5423 5424 5424 5425 5426 5427 5428 5430 5432 5434 5436 5437 5438 5440
5415 5414 5413 5412 5411 5410 5410 5411 5411 5412 5415 5415 5416 5416 5416 5414 5413 5412 5412 5412 5413 5412 5411 5412 5412 5414 5415 5415 5416 5417 5419 5421 5423 5425 5426 5428 5429 5432
5406 5406 5405 5405 5403 5403 5403 5403 5403 5403 5404 5405 5406 5407 5406 5405 5404 5403 5402 5402 5402 5401 5399 5402 5402 5404 5405 5406 5406 5408 5410 5412 5414 5416 5417 5419 5421 5423
5398 5397 5397 5397 5396 5395 5395 5396 5396 5396 5396 5396 5398 5399 5397 5396 5395 5394 5393 5392 5392 5391 5390 5391 5393 5395 5396 5397 5398 5399 5401 5403 5405 5407 5409 5410 5413 5416
5390 5389 5389 5389 5388 5387 5387 5388 5389 5389 5388 5387 5388 5389 5388 5387 5386 5384 5384 5383 5384 5384 5382 5382 5384 5385 5387 5389 5390 5390 5392 5394 5396 5398 5400 5403 5405 5408
5383 5382 5382 5382 5382 5381 5381 5381 5382 5382 5381 5381 5381 5381 5381 5380 5378 5377 5377 5376 5376 5376 5376 5374 5374 5374 5379 5381 5381 5382 5383 5385 5388 5390 5393 5395 5397 5400
5376 5376 5376 5376 5375 5375 5374 5374 5375 5374 5374 5374 5374 5373 5373 5373 5372 5370 5369 5369 5368 5368 5368 5365 5366 5366 5367 5371 5373 5374 5376 5378 5380 5383 5386 5388 5390 5393
5368 5368 5369 5368 5368 5368 5367 5368 5367 5366 5367 5367 5367 5366 5366 5366 5365 5363 5362 5362 5362 5362 5361 5359 5359 5359 5360 5362 5365 5368 5368 5370 5373 5376 5379 5381 5384 5386
5361 5361 5361 5361 5360 5360 5360 5360 5360 5360 5360 5361 5361 5361 5360 5359 5358 5357 5356 5356 5356 5355 5354 5353 5353 5353 5353 5355 5357 5359 5361 5364 5366 5369 5372 5375 5378 5381
5355 5355 5354 5353 5353 5352 5353 5353 5353 5353 5353 5354 5355 5354 5352 5352 5352 5352 5351 5351 5351 5350 5348 5347 5347 5347 5347 5348 5349 5352 5354 5356 5360 5362 5365 5369 5372 5374
5349 5348 5348 5348 5348 5348 5348 5347 5347 5347 5347 5348 5347 5347 5346 5346 5346 5345 5345 5345 5344 5344 5343 5342 5341 5341 5341 5342 5344 5346 5348 5350 5353 5356 5359 5363 5367 5369
5343 5343 5343 5343 5343 5343 5343 5342 5342 5341 5342 5342 5342 5342 5341 5341 5340 5340 5339 5339 5339 5338 5337 5336 5336 5336 5337 5338 5337 5340 5343 5345 5347 5350 5352 5356 5361 5364
5338 5339 5339 5338 5338 5338 5338 5337 5337 5337 5336 5336 5336 5336 5336 5335 5335 5334 5334 5333 5333 5332 5331 5330 5330 5332 5333 5335 5335 5334 5336 5340 5342 5345 5348 5350 5354 5358
5334 5334 5334 5334 5333 5333 5333 5333 5333 5332 5332 5331 5331 5331 5331 5330 5330 5329 5329 5328 5327 5327 5326 5326 5325 5326 5327 5328 5329 5330 5331 5334 5338 5341 5343 5346 5349 5352
5330 5330 5330 5330 5329 5329 5329 5329 5329 5328 5328 5327 5327 5327 5326 5326 5325 5324 5324 5323 5323 5323 5323 5322 5322 5321 5321 5322 5324 5327 5329 5330 5332 5335 5338 5341 5345 5349
5326 5326 5326 5326 5326 5326 5326 5326 5325 5325 5324 5324 5324 5323 5323 5322 5321 5320 5321 5321 5320 5319 5319 5318 5318 5319 5320 5321 5322 5324 5326 5328 5330 5332 5334 5337 5339 5343
5322 5322 5323 5323 5323 5323 5323 5322 5322 5322 5322 5321 5320 5320 5319 5318 5318 5317 5318 5318 5317 5316 5316 5316 5317 5317 5318 5318 5319 5321 5322 5325 5328 5331 5334 5335 5336 5338